Date String (YYYY-MM-DD hh:mm:ss) UTC,Instrument flags,Ambient pressure (hPa),Sample flow (lpm),Bypass flow (lpm),Sample temperature (°C),Ambient temperature (°C),ASC tube jacket temperature (°C),LED temperature (°C),Box temperature (°C),Sample RH (%),Span deviation,Mass concentration (μg/m³),Mass concentration (μg/m³),Mass concentration (μg/m³)
DateTimeUTC,F1_M11,P_M11,Q1_M11,Q2_M11,T1_M11,T2_M11,T3_M11,T4_M11,T5_M11,U1_M11,ZSPAN_M11,X0_M11,X2_M11,X1_M11
2022-08-05 04:00:00,,0826.3,5.00,0.00,29.2,27.0,00.0,38.0,31.0,24.7,0001.4,0019.82,0009.50,0007.50
2022-08-05 04:01:00,,0826.3,4.99,0.00,29.2,27.2,00.0,38.0,31.0,24.6,0001.7,0019.32,0009.43,0007.49
2022-08-05 04:02:00,,0826.4,5.01,0.00,29.2,27.4,00.0,38.0,31.1,24.5,0002.0,0019.43,0009.49,0007.51
2022-08-05 04:03:00,,0826.4,4.99,0.00,29.2,27.6,00.0,38.0,31.1,24.6,0002.7,0019.88,0009.52,0007.52
2022-08-05 04:04:00,,0826.4,5.00,0.00,29.2,27.8,00.0,38.0,31.2,24.4,0003.0,0020.58,0009.58,0007.55
2022-08-05 04:05:00,,0826.4,5.00,0.00,29.3,28.0,00.0,38.0,31.3,24.5,0003.0,0021.18,0009.52,0007.55
2022-08-05 04:06:00,,0826.4,5.00,0.00,29.3,28.1,00.0,38.0,31.3,24.4,0003.1,0022.03,0009.49,0007.55
2022-08-05 04:07:00,,0826.4,5.00,0.00,29.4,28.3,00.0,38.1,31.4,24.5,0003.2,0021.23,0009.39,0007.54
2022-08-05 04:08:00,,0826.4,5.01,0.00,29.4,28.4,00.0,38.1,31.4,24.4,0003.2,0020.63,0009.35,0007.52
2022-08-05 04:09:00,,0826.3,5.00,0.00,29.4,28.4,00.0,38.1,31.4,24.2,0003.3,0020.57,0009.35,0007.52
2022-08-05 04:10:00,,0826.3,5.00,0.00,29.4,27.9,00.0,38.1,31.3,24.1,0003.2,0020.08,0009.30,0007.51
2022-08-05 04:11:00,,0826.2,5.01,0.00,29.4,27.2,00.0,38.1,31.1,24.2,0002.7,0020.31,0009.36,0007.49
2022-08-05 04:12:00,,0826.2,4.99,0.00,29.3,26.9,00.0,38.1,31.1,24.2,0002.5,0020.46,0009.44,0007.48
2022-08-05 04:13:00,,0826.2,5.00,0.00,29.3,27.0,00.0,38.0,31.0,24.1,0002.2,0019.72,0009.35,0007.45
2022-08-05 04:14:00,,0826.2,5.01,0.00,29.2,27.1,00.0,38.0,31.0,24.0,0001.6,0018.96,0009.32,0007.43
2022-08-05 04:15:00,,0826.3,4.99,0.00,29.2,27.3,00.0,38.0,31.1,24.0,0001.5,0018.32,0009.35,0007.40
2022-08-05 04:16:00,,0826.2,5.01,0.00,29.2,27.5,00.0,38.0,31.1,24.1,0001.2,0018.74,0009.39,0007.38
2022-08-05 04:17:00,,0826.2,5.00,0.00,29.2,27.7,00.0,38.0,31.2,24.0,0001.1,0018.70,0009.37,0007.35
2022-08-05 04:18:00,,0826.2,5.00,0.00,29.3,27.9,00.0,38.0,31.2,23.9,0000.9,0019.62,0009.36,0007.33
2022-08-05 04:19:00,,0826.3,5.00,0.00,29.3,28.0,00.0,38.0,31.3,23.8,0000.7,0020.55,0009.41,0007.33
2022-08-05 04:20:00,,0826.2,4.99,0.00,29.3,28.2,00.0,38.1,31.3,23.7,0000.7,0020.76,0009.34,0007.31
2022-08-05 04:21:00,,0826.3,5.00,0.00,29.4,28.3,00.0,38.1,31.4,23.7,0000.5,0021.06,0009.38,0007.32
2022-08-05 04:22:00,,0826.2,5.00,0.00,29.4,28.4,00.0,38.1,31.4,23.6,0000.6,0021.13,0009.37,0007.33
2022-08-05 04:23:00,,0826.3,5.00,0.00,29.5,28.5,00.0,38.1,31.4,23.6,0000.9,0021.86,0009.40,0007.34
2022-08-05 04:24:00,,0826.3,4.99,0.00,29.4,27.8,00.0,38.1,31.3,23.7,0001.2,0022.11,0009.44,0007.36
2022-08-05 04:25:00,,0826.2,5.01,0.00,29.4,27.1,00.0,38.1,31.1,23.7,0001.2,0022.44,0009.43,0007.38
2022-08-05 04:26:00,,0826.2,4.99,0.00,29.3,26.9,00.0,38.1,31.1,23.8,0001.2,0022.82,0009.37,0007.41
2022-08-05 04:27:00,,0826.2,5.02,0.00,29.3,27.0,00.0,38.0,31.0,23.9,0001.4,0021.87,0009.41,0007.47
2022-08-05 04:28:00,,0826.2,4.99,0.00,29.2,27.2,00.0,38.0,31.0,23.9,0001.1,0022.15,0009.45,0007.51
2022-08-05 04:29:00,,0826.2,5.01,0.00,29.2,27.3,00.0,38.0,31.0,23.9,0001.0,0021.92,0009.53,0007.52
2022-08-05 04:30:00,,0826.2,4.99,0.00,29.2,27.5,00.0,38.0,31.1,23.9,0000.9,0023.05,0009.53,0007.53
2022-08-05 04:31:00,,0826.2,5.00,0.00,29.2,27.7,00.0,38.0,31.2,23.9,0001.1,0023.52,0009.54,0007.55
2022-08-05 04:32:00,,0826.2,5.00,0.00,29.3,27.9,00.0,38.0,31.2,23.9,0001.2,0023.52,0009.45,0007.55
2022-08-05 04:33:00,,0826.2,5.00,0.00,29.3,28.1,00.0,38.0,31.3,23.9,0001.3,0023.27,0009.47,0007.56
2022-08-05 04:34:00,,0826.2,5.00,0.00,29.3,28.2,00.0,38.1,31.3,23.8,0001.6,0021.99,0009.40,0007.56
2022-08-05 04:35:00,,0826.2,5.00,0.00,29.4,28.3,00.0,38.1,31.4,23.8,0001.2,0022.36,0009.36,0007.57
2022-08-05 04:36:00,,0826.2,5.00,0.00,29.4,28.4,00.0,38.1,31.5,23.7,0001.3,0022.77,0009.36,0007.57
2022-08-05 04:37:00,,0826.2,5.00,0.00,29.5,28.4,00.0,38.1,31.5,23.7,0001.4,0022.89,0009.35,0007.56
2022-08-05 04:38:00,,0826.2,4.99,0.00,29.4,27.7,00.0,38.1,31.3,23.7,0001.2,0022.55,0009.33,0007.54
2022-08-05 04:39:00,,0826.2,5.00,0.00,29.4,27.1,00.0,38.1,31.1,23.7,0001.3,0021.76,0009.33,0007.54
2022-08-05 04:40:00,,0826.1,5.01,0.00,29.3,26.9,00.0,38.1,31.0,23.9,0001.5,0021.64,0009.31,0007.56
2022-08-05 04:41:00,,0826.2,5.00,0.00,29.2,27.0,00.0,38.0,31.0,24.1,0001.9,0021.28,0009.35,0007.57
2022-08-05 04:42:00,,0826.2,4.99,0.00,29.2,27.2,00.0,38.0,31.0,24.1,0002.0,0020.35,0009.32,0007.56
2022-08-05 04:43:00,,0826.2,5.01,0.00,29.2,27.3,00.0,38.0,31.1,24.1,0001.9,0020.11,0009.41,0007.56
2022-08-05 04:44:00,,0826.2,4.99,0.00,29.2,27.5,00.0,38.0,31.1,24.2,0002.1,0020.55,0009.47,0007.58
2022-08-05 04:45:00,,0826.2,4.99,0.00,29.2,27.7,00.0,38.0,31.2,24.2,0001.7,0021.47,0009.51,0007.59
2022-08-05 04:46:00,,0826.2,5.01,0.00,29.3,27.9,00.0,38.0,31.2,24.2,0001.8,0021.45,0009.53,0007.61
2022-08-05 04:47:00,,0826.2,5.00,0.00,29.3,28.0,00.0,38.1,31.3,24.1,0001.8,0020.88,0009.52,0007.63
2022-08-05 04:48:00,,0826.2,5.00,0.00,29.3,28.2,00.0,38.1,31.4,24.1,0001.6,0020.46,0009.61,0007.65
2022-08-05 04:49:00,,0826.2,5.00,0.00,29.4,28.3,00.0,38.1,31.4,24.1,0001.5,0020.59,0009.66,0007.69
2022-08-05 04:50:00,,0826.2,5.00,0.00,29.4,28.4,00.0,38.1,31.4,24.1,0001.3,0020.69,0009.67,0007.69
2022-08-05 04:51:00,,0826.2,4.99,0.00,29.5,28.3,00.0,38.1,31.4,24.0,0001.4,0020.11,0009.67,0007.69
2022-08-05 04:52:00,,0826.2,5.00,0.00,29.4,27.6,00.0,38.1,31.2,24.0,0001.4,0019.43,0009.66,0007.71
2022-08-05 04:53:00,,0826.1,5.02,0.00,29.4,27.0,00.0,38.1,31.1,24.1,0001.5,0020.12,0009.69,0007.73
2022-08-05 04:54:00,,0826.2,5.00,0.00,29.3,26.9,00.0,38.1,31.0,24.2,0001.7,0021.22,0009.70,0007.77
2022-08-05 04:55:00,,0826.2,5.00,0.00,29.2,27.0,00.0,38.0,31.0,24.2,0001.8,0021.92,0009.70,0007.79
2022-08-05 04:56:00,,0826.1,5.00,0.00,29.2,27.1,00.0,38.0,31.0,24.2,0001.9,0021.20,0009.73,0007.82
2022-08-05 04:57:00,,0826.1,4.99,0.00,29.2,27.3,00.0,38.0,31.1,24.2,0001.6,0021.10,0009.82,0007.84
2022-08-05 04:58:00,,0826.2,5.01,0.00,29.2,27.5,00.0,38.0,31.1,24.2,0001.7,0021.05,0009.87,0007.87
2022-08-05 04:59:00,,0826.2,5.00,0.00,29.2,27.7,00.0,38.0,31.2,24.2,0001.9,0020.82,0009.85,0007.90
